Weather History for South Bend, IN

Change the Weather History Date:

Sunday, February 5, 2012

  Actual Average Record
Temperature  
Mean Temperature 33 °F 26 °F  
Max Temperature 44 °F 33 °F 59 °F (1945)
Min Temperature 21 °F 19 °F -16 °F (1936)
Degree Days  
Heating Degree Days 32 40  
Month to date heating degree days 149 200  
Since 1 July heating degree days 3286 3848  
Cooling Degree Days 0 0  
Month to date cooling degree days 0 0  
Year to date cooling degree days 0 0  
Moisture  
Dew Point 25 °F    
Average Humidity 77    
Maximum Humidity 96    
Minimum Humidity 58    
Precipitation  
Precipitation 0.00 in 0.06 in 0.77 in (2008)
Month to date precipitation 0.06 0.31  
Year to date precipitation 3.03 2.60  
Snow  
Snow 0.00 in - - ()
Snow Depth 0.00 in    
Sea Level Pressure  
Sea Level Pressure 30.25 in    
Wind  
Wind Speed 3 mph (WNW)    
Max Wind Speed 13 mph    
Max Gust Speed 16 mph    
Visibility 7 miles    
Events Fog    
T = Trace of Precipitation, MM = Missing Value Source: NWS Daily Summary

Daily Weather History Graph

Daily Weather History Graph

Search for Another Location

Airport:

Trip Planner

Search our weather history database for the weather conditions in past years. The results will help you decide how hot, cold, wet, or windy it might be!

Date:

Astronomy

Feb. 05, 2012 Rise Set
Actual Time 7:53 AM EST 6:05 PM EST
Civil Twilight 7:24 AM EST 6:34 PM EST
Nautical Twilight 6:51 AM EST 7:07 PM EST
Astronomical Twilight 6:18 AM EST 7:40 PM EST
Moon 4:02 PM EST (2/5) 6:05 AM EST (2/5)
Length of Visible Light 11h 10m
Length of Day
10h 11m
Waxing Gibbous, 94% of the Moon is Illuminated
Feb 5
Waxing Gibbous
Feb 7
Full
Feb 14
Last Quarter
Feb 21
New
Feb 29
First Quarter

Hourly Weather History & Observations

Time (EST) Temp. Windchill Dew Point Humidity Pressure Visibility Wind Dir Wind Speed Gust Speed Precip Events Conditions
12:54 AM 28.0 °F 21.7 °F 24.1 °F 85% 30.19 in 8.0 mi North 5.8 mph - N/A   Clear
1:54 AM 27.0 °F - 23.0 °F 85% 30.20 in 7.0 mi Calm Calm - N/A   Clear
2:54 AM 25.0 °F - 21.9 °F 88% 30.20 in 4.0 mi Calm Calm - N/A   Clear
3:26 AM 24.8 °F - 21.2 °F 86% 30.17 in 2.5 mi Calm Calm - N/A   Clear
3:33 AM 24.8 °F - 21.2 °F 86% 30.17 in 6.0 mi Calm Calm - N/A   Clear
3:54 AM 24.1 °F - 19.9 °F 84% 30.20 in 6.0 mi Calm Calm - N/A   Clear
4:54 AM 25.0 °F - 21.0 °F 85% 30.20 in 4.0 mi Calm Calm - N/A   Clear
5:54 AM 21.9 °F 17.2 °F 19.0 °F 89% 30.22 in 9.0 mi WNW 3.5 mph - N/A   Clear
6:54 AM 21.9 °F - 18.0 °F 85% 30.23 in 9.0 mi Calm Calm - N/A   Clear
7:37 AM 23.0 °F - 17.6 °F 80% 30.21 in 8.0 mi Calm Calm - N/A   Scattered Clouds
7:54 AM 23.0 °F - 19.0 °F 85% 30.25 in 0.5 mi Calm Calm - N/A Fog Light Freezing Fog
8:00 AM 21.2 °F - 17.6 °F 86% 30.22 in 6.0 mi Calm Calm - N/A   Clear
8:37 AM 24.8 °F - 21.2 °F 86% 30.23 in 6.0 mi Calm Calm - N/A   Mostly Cloudy
8:49 AM 26.6 °F - 23.0 °F 86% 30.24 in 5.0 mi Calm Calm - N/A   Overcast
8:54 AM 26.1 °F 21.9 °F 23.0 °F 88% 30.27 in 5.0 mi SE 3.5 mph - N/A   Overcast
9:54 AM 32.0 °F - 28.9 °F 88% 30.29 in 6.0 mi Calm Calm - N/A   Overcast
10:06 AM 32.0 °F - 28.4 °F 87% 30.27 in 0.8 mi Calm Calm - N/A   Overcast
10:28 AM 33.8 °F - 32.0 °F 93% 30.27 in 0.2 mi Calm Calm - N/A Fog Fog
10:54 AM 33.1 °F - 32.0 °F 96% 30.30 in 0.2 mi Calm Calm - N/A Fog Fog
11:54 AM 37.0 °F 34.5 °F 34.0 °F 89% 30.30 in 1.0 mi North 3.5 mph - N/A   Overcast
11:56 AM 37.4 °F - 33.8 °F 87% 30.27 in 3.0 mi Calm Calm - N/A   Overcast
12:54 PM 37.9 °F - 33.1 °F 83% 30.29 in 10.0 mi Calm Calm - N/A   Scattered Clouds
1:04 PM 39.2 °F 35.0 °F 33.8 °F 81% 30.26 in 10.0 mi WNW 5.8 mph - N/A   Scattered Clouds
1:54 PM 43.0 °F 41.3 °F 30.9 °F 62% 30.27 in 10.0 mi WSW 3.5 mph - N/A   Partly Cloudy
2:54 PM 44.1 °F 39.5 °F 30.9 °F 60% 30.27 in 10.0 mi West 8.1 mph - N/A   Clear
3:54 PM 43.0 °F 38.2 °F 33.1 °F 68% 30.28 in 10.0 mi West 8.1 mph - N/A   Clear
4:54 PM 42.1 °F 36.6 °F 30.9 °F 65% 30.28 in 10.0 mi NW 9.2 mph - N/A   Partly Cloudy
5:54 PM 37.0 °F 31.0 °F 28.0 °F 70% 30.30 in 10.0 mi NW 8.1 mph - N/A   Clear
6:54 PM 32.0 °F 26.4 °F 26.1 °F 79% 30.32 in 10.0 mi NW 5.8 mph - N/A   Clear
7:54 PM 28.9 °F 25.2 °F 23.0 °F 78% 30.32 in 10.0 mi NW 3.5 mph - N/A   Clear
8:54 PM 28.0 °F - 23.0 °F 81% 30.31 in 10.0 mi Calm Calm - N/A   Clear
9:54 PM 27.0 °F 23.0 °F 23.0 °F 85% 30.28 in 10.0 mi SSW 3.5 mph - N/A   Clear
10:54 PM 26.1 °F - 23.0 °F 88% 30.27 in 9.0 mi Calm Calm - N/A   Clear
11:54 PM 27.0 °F 23.0 °F 23.0 °F 85% 30.27 in 9.0 mi SW 3.5 mph - N/A   Clear